STARLINK-35378, 65794

Orbit data source: Space-Track

STARLINK-35378, 65794 is a payload satellite owned by SpaceX/Seattle (US) in SSO that was launched on Fri, 26 Sep 2025 UTC via an FALCON 9 launch vehicle from the Air Force Western Test Range (AFWTR). Payload-class satellites include a variety of spacecraft equipped with specific instruments for various scientific and technological missions. These include communications satellites like Starlink; space stations such as the ISS; scientific satellites like the Hubble; Earth observation satellites from companies like Planet Labs, Umbra, and HawkEye 360; GPS; miniature CubeSats for education and research; and military/defense satellites.

Loading next visibility...
Identifier
65794, 2025-218D
Orbit
SSO
Country
Flag of USUS
Related business
Manufacturer
SpaceX/Seattle
Mission
Operational Commercial Communications
Bus & Motor
STARLINK V2MO, Unknown motor
Mass
575 kg wet, ~530 kg dry
Launch date (UTC)
2025-09-26 (1 month ago)
Launch vehicle
FALCON 9
Launch site
Air Force Western Test Range (AFWTR)
Object type
Payload
Rocket body
Debris
Shape & HBR
Box + 2 Pan, 17.7 m
Radar Cross Section
36.964 m²

Expand to show TLE details & history
Last TLE update: 2 days ago

TLE from 2 days ago
0 STARLINK-35378
1 65794U 25218D   25312.18381749  .00004378  00000-0  30733-3 0  9994
2 65794  97.6026 173.1350 0002190 103.1229 257.0242 15.05662348  6685
Epoch: 2025-11-08T04:24Z
TLE epoch observation values (Epoch: 2025-11-08T04:24:41.831Z)
Latitude
-0.00003°
Longitude
59.34363°
Altitude
552.88 km
Speed
7.585 km/s
True Right ascension
11h 32m 32s
True Declination
0° 00' 00"
Sunlit
Object was in daylight at epoch
Visualization orbit readout
Latitude
Unknown
Longitude
Unknown
Altitude
Unknown
Speed
Unknown
Apparent Right ascension
Unknown
Apparent Declination
Unknown
Sunlit
N/A
Visualization observer readout
Local Sidereal Time
03:59:35
Azimuth
Unknown
Elevation
Unknown
Doppler factor
Unknown
Orbital elements
Apogee altitude
547.983 km
Perigee altitude
544.95 km
Semi-major axis
6,924.604 km
Eccentricity
0.00022
Inclination
97.6026°
RAAN
173.135°
Arg. of periapsis
103.1229°
True anomaly
256.99975°
Mean anomaly
257.0242°
Eccentric anomaly
257.01197°
Mean motion
3.76661 °/min
Orbital period
95.58 mins
BSTAR
0.00030733
Loading maneuver chart data...
Computing Atmospheric mass density...
Loading historical data...
Loading historical data...
Loading historical data...
Loading historical data...
Loading historical data...
Loading historical data...
Loading historical data...

Documentation

Showing up to 5 results
|